#timestamp,LO_Frequency,Hit,StdDev 
1536253215.0,286047001.3,N
1536253215.9,286047001.3,N
1536253235.8,286047003.7,Y
1536253255.6,286047000.4,P
1536253275.4,286046999.9,N
1536253295.3,286046999.7,N
1536253315.1,286047002.4,N
1536253335.9,286047001.6,N
1536253355.7,286047001.6,N
1536253375.5,286047003.5,Y
1536253395.4,286047004.3,P
1536253415.2,286047001.7,N
1536253435.0,286047001.5,N
1536253435.9,286047001.5,N
1536253455.8,286047001.8,N
1536253475.6,286047001.4,N
1536253495.5,286047004.1,Y
1536253515.3,286047002.2,P
1536253535.1,286047001.6,P
1536253555.9,286047003.9,P
1536253575.7,286047001.7,N
1536253595.5,286047002.5,N
1536253615.4,286047002.1,N
1536253635.2,286047003.6,Y
1536253655.1,286047002.0,P
1536253656.0,286047002.0,P
1536253675.8,286047002.4,P
1536253695.6,286047002.8,Y
1536253715.5,286046996.6,P
1536253735.3,286046999.0,N
1536253755.1,286047000.8,N
1536253775.9,286047001.2,N
1536253795.7,286047002.4,N
1536253815.6,286047000.0,N
1536253835.4,286047000.1,N
1536253855.2,286046999.9,N
1536253875.1,286046998.6,N
1536253876.0,286046998.6,N
1536253895.8,286046998.5,N
1536253915.6,286047000.2,N
1536253935.5,286047000.3,N
1536253955.3,286047002.6,N
1536253975.2,286047002.6,N
1536253995.9,286047004.3,N
1536254015.7,286047003.7,N
1536254035.6,286047002.2,N
1536254055.4,286047000.1,N
1536254075.3,286047000.2,N
1536254095.1,286047001.3,N
1536254096.0,286047001.3,N
1536254115.8,286047001.7,N
1536254135.7,286047002.3,N
1536254155.5,286047002.5,N
1536254175.3,286047002.8,N
1536254195.2,286047002.5,N
1536254215.0,286047001.5,N
1536254215.9,286047001.5,N
1536254235.8,286047002.3,N
1536254255.6,286047001.7,N
1536254275.4,286047004.2,N
1536254295.3,286047005.9,Y
1536254315.1,286047005.3,P
1536254335.9,286047006.0,P
1536254355.7,286047005.0,N
1536254375.5,286047002.9,N
1536254395.4,286047003.7,N
1536254415.2,286047003.2,N
1536254435.0,286047005.3,Y
1536254435.9,286047005.3,P
1536254455.8,286047001.4,N
1536254475.6,286047002.1,N
1536254495.4,286047002.4,N
1536254515.3,286047002.8,N
1536254535.1,286046998.3,N
1536254555.9,286047000.6,N
1536254575.7,286047004.3,N
1536254595.5,286047004.0,N
1536254615.4,286047001.9,N
1536254635.2,286047002.0,N
1536254655.0,286047002.0,N
1536254655.9,286047002.0,N
1536254675.8,286047002.8,N
1536254695.6,286047000.6,N
1536254715.5,286047000.2,N
1536254735.3,286047002.2,N
1536254755.1,286047002.2,N
1536254775.9,286047004.9,Y
1536254795.7,286047003.3,P
1536254815.5,286047005.5,P
1536254835.4,286047006.9,P
1536254855.2,286047010.7,Y
1536254875.1,286047006.2,P
1536254876.0,286047006.2,P
1536254895.8,286047007.4,P
1536254915.6,286047005.9,Y
1536254935.5,286046999.2,P
1536254955.3,286046998.4,N
1536254975.2,286046999.4,N
1536254995.9,286046998.3,N
1536255015.7,286047000.1,N
1536255035.6,286047003.5,N
1536255055.4,286047005.7,N
1536255075.2,286047004.7,N
1536255095.1,286047005.8,N
1536255096.0,286047005.8,N
1536255115.8,286047003.5,N
1536255135.6,286047001.8,N
1536255155.5,286047004.4,N
1536255175.3,286047003.7,N
1536255195.2,286047000.5,N
1536255215.9,286046996.5,N
1536255235.7,286047001.1,N
1536255255.6,286046998.5,N
1536255275.4,286046996.6,N
1536255295.2,286046999.4,N
1536255315.1,286046998.9,N
1536255316.0,286046998.9,N
1536255335.8,286046998.1,N
1536255355.7,286047000.1,N
1536255375.5,286047001.2,N
1536255395.3,286046999.4,N
1536255415.2,286046999.4,N
1536255435.0,286046997.0,N
1536255435.9,286046997.0,N
1536255455.7,286046997.6,N
1536255475.6,286046997.0,N
1536255495.4,286046997.3,N
1536255515.3,286046999.2,N
1536255535.1,286047001.0,N
1536255536.0,286047001.0,N
1536255555.8,286047000.3,N
1536255575.7,286047001.5,N
1536255595.5,286047001.6,N
1536255615.3,286047004.1,N
1536255635.2,286047001.7,N
1536255655.0,286047003.9,N
1536255655.9,286047003.9,N
1536255675.8,286047001.7,N
1536255695.6,286047002.2,N
1536255715.4,286047002.2,N
1536255735.3,286047002.2,N
1536255755.1,286047002.3,N
1536255756.0,286047002.3,N
1536255775.8,286047000.8,N
1536255795.7,286046999.0,N
1536255815.5,286046998.6,N
1536255835.3,286047000.0,N
1536255855.2,286047000.6,N
1536255875.0,286046998.5,N
1536255875.9,286046998.5,N
1536255895.8,286046998.4,N
1536255915.6,286046999.8,N
1536255935.4,286047002.8,N
1536255955.3,286047000.0,N
1536255975.1,286047000.8,N
1536255995.8,286046999.2,N
1536256015.7,286047002.8,N
1536256035.5,286047002.8,N
1536256055.4,286047000.5,N
1536256075.2,286047002.5,N
1536256095.0,286047002.8,N
1536256095.9,286047002.8,N
1536256115.8,286046998.3,N
1536256135.6,286047002.7,N
1536256155.4,286047002.3,N
1536256175.3,286047003.9,N
1536256195.1,286047004.3,N
1536256215.9,286047003.9,N
1536256235.7,286047004.9,N
1536256255.5,286047005.8,N
1536256275.4,286047006.0,N
1536256295.2,286047004.9,N
1536256315.0,286047003.1,N
1536256316.0,286047003.1,N
1536256335.8,286047004.1,N
1536256355.6,286047003.5,N
1536256375.5,286047004.0,N
1536256395.3,286047001.3,N
1536256415.1,286047003.6,N
1536256435.9,286047004.0,N
1536256455.7,286047004.0,N
1536256475.5,286047001.4,N
1536256495.4,286047002.4,N
1536256515.2,286047002.6,N
1536256535.1,286047002.7,N
1536256536.0,286047002.7,N
1536256555.8,286047002.2,N
1536256575.6,286047001.6,N
1536256595.5,286047003.7,N
1536256615.3,286047001.4,N
1536256635.1,286047000.3,N
1536256655.9,286047001.5,N
1536256675.7,286047003.4,N
1536256695.6,286047003.3,N
1536256715.4,286047003.4,N
1536256735.2,286047007.6,Y
1536256755.1,286046999.7,P
1536256756.0,286046999.7,N
1536256775.8,286046996.5,N
1536256795.6,286046997.6,N
